Time,TemperatureF,DewpointF,PressureIn,WindDirection,WindDirectionDegrees,WindSpeedMPH,WindSpeedGustMPH,Humidity,HourlyPrecipIn,Conditions,Clouds,dailyrainin,SoftwareType,DateUTC
2013-06-15 00:01:00,67.8,59.2,29.92,SSW,203,0.0,0.0,74,0.02,,,0.00,WUHU216HW,2013-06-15 05:01:00,
2013-06-15 00:06:00,67.6,59.4,29.92,SSW,203,0.0,0.0,75,0.02,,,0.02,WUHU216HW,2013-06-15 05:06:00,
2013-06-15 00:11:00,67.2,59.0,29.92,SSE,158,0.0,0.0,75,0.04,,,0.04,WUHU216HW,2013-06-15 05:11:00,
2013-06-15 00:16:00,66.7,59.6,29.92,SSE,158,0.0,0.0,78,0.06,,,0.04,WUHU216HW,2013-06-15 05:16:00,
2013-06-15 00:21:00,66.3,59.3,29.92,SSE,158,0.0,0.0,78,0.08,,,0.08,WUHU216HW,2013-06-15 05:21:00,
2013-06-15 00:26:00,65.8,59.5,29.90,SE,135,0.0,0.0,80,0.10,,,0.11,WUHU216HW,2013-06-15 05:26:00,
2013-06-15 00:31:00,65.4,59.1,29.89,SE,135,0.0,0.0,80,0.12,,,0.13,WUHU216HW,2013-06-15 05:31:00,
2013-06-15 00:36:00,65.3,59.3,29.90,SSE,158,0.0,0.0,81,0.12,,,0.13,WUHU216HW,2013-06-15 05:36:00,
2013-06-15 00:41:00,64.9,59.4,29.90,SSE,158,0.0,0.0,82,0.12,,,0.13,WUHU216HW,2013-06-15 05:41:00,
2013-06-15 00:46:00,64.9,59.6,29.90,ESE,113,0.0,0.0,83,0.12,,,0.13,WUHU216HW,2013-06-15 05:46:00,
2013-06-15 00:51:00,64.7,59.8,29.89,SE,135,0.0,0.0,84,0.12,,,0.13,WUHU216HW,2013-06-15 05:51:00,
2013-06-15 00:56:00,64.5,59.8,29.89,SE,135,0.0,0.0,84,0.12,,,0.13,WUHU216HW,2013-06-15 05:56:00,
2013-06-15 01:01:00,64.5,59.9,29.89,SSE,158,0.0,0.0,85,0.12,,,0.13,WUHU216HW,2013-06-15 06:01:00,
2013-06-15 01:06:00,64.2,59.6,29.90,SSE,158,0.0,0.0,85,0.10,,,0.13,WUHU216HW,2013-06-15 06:06:00,
2013-06-15 01:11:00,64.2,59.6,29.89,SSE,158,0.0,0.0,85,0.08,,,0.13,WUHU216HW,2013-06-15 06:11:00,
2013-06-15 01:16:00,64.2,59.9,29.88,SSE,158,0.0,0.0,86,0.06,,,0.13,WUHU216HW,2013-06-15 06:16:00,
2013-06-15 01:21:00,64.2,59.9,29.88,SSE,158,0.0,0.0,86,0.04,,,0.13,WUHU216HW,2013-06-15 06:21:00,
2013-06-15 01:26:00,64.0,59.7,29.88,SSE,158,0.0,0.0,86,0.00,,,0.13,WUHU216HW,2013-06-15 06:26:00,
2013-06-15 01:31:00,64.0,59.7,29.88,ESE,113,0.0,0.0,86,0.00,,,0.13,WUHU216HW,2013-06-15 06:31:00,
2013-06-15 01:36:00,63.6,59.4,29.88,SSE,158,0.0,0.0,86,0.00,,,0.13,WUHU216HW,2013-06-15 06:36:00,
2013-06-15 01:41:00,63.6,59.4,29.88,SSE,158,0.0,0.0,86,0.00,,,0.13,WUHU216HW,2013-06-15 06:41:00,
2013-06-15 01:46:00,63.6,59.4,29.89,SSE,158,0.0,0.0,86,0.00,,,0.13,WUHU216HW,2013-06-15 06:46:00,
2013-06-15 01:51:00,63.6,59.7,29.89,SSE,158,0.0,0.0,87,0.00,,,0.13,WUHU216HW,2013-06-15 06:51:00,
2013-06-15 01:56:00,63.6,59.7,29.89,SSE,158,0.0,0.0,87,0.00,,,0.13,WUHU216HW,2013-06-15 06:56:00,
2013-06-15 02:01:00,64.0,60.1,29.89,SE,135,0.0,0.0,87,0.00,,,0.13,WUHU216HW,2013-06-15 07:01:00,
2013-06-15 02:06:00,64.0,60.1,29.89,SE,135,0.0,0.0,87,0.00,,,0.13,WUHU216HW,2013-06-15 07:06:00,
2013-06-15 02:11:00,64.0,60.1,29.87,SSE,158,0.0,0.0,87,0.00,,,0.13,WUHU216HW,2013-06-15 07:11:00,
2013-06-15 02:16:00,64.0,60.1,29.88,SE,135,0.0,0.0,87,0.00,,,0.13,WUHU216HW,2013-06-15 07:16:00,
2013-06-15 02:21:00,64.2,60.3,29.88,SSE,158,0.0,0.0,87,0.00,,,0.13,WUHU216HW,2013-06-15 07:21:00,
2013-06-15 02:26:00,64.2,60.3,29.87,SE,135,0.0,0.0,87,0.00,,,0.13,WUHU216HW,2013-06-15 07:26:00,
2013-06-15 02:31:00,64.2,60.3,29.87,SE,135,0.0,0.0,87,0.00,,,0.13,WUHU216HW,2013-06-15 07:31:00,
2013-06-15 02:36:00,64.2,60.3,29.88,SE,135,0.0,0.0,87,0.00,,,0.13,WUHU216HW,2013-06-15 07:36:00,
2013-06-15 02:41:00,64.2,60.3,29.87,SE,135,0.0,0.0,87,0.00,,,0.13,WUHU216HW,2013-06-15 07:41:00,
2013-06-15 02:46:00,64.2,60.3,29.88,SSE,158,0.0,0.0,87,0.00,,,0.13,WUHU216HW,2013-06-15 07:46:00,
2013-06-15 02:51:00,64.2,60.3,29.87,SE,135,0.0,0.0,87,0.00,,,0.13,WUHU216HW,2013-06-15 07:51:00,
2013-06-15 02:56:00,64.2,60.3,29.88,SE,135,0.0,0.0,87,0.00,,,0.13,WUHU216HW,2013-06-15 07:56:00,
2013-06-15 03:01:00,64.2,60.3,29.87,SE,135,0.0,0.0,87,0.00,,,0.13,WUHU216HW,2013-06-15 08:01:00,
2013-06-15 03:06:00,64.2,60.3,29.88,SE,135,0.0,0.0,87,0.00,,,0.13,WUHU216HW,2013-06-15 08:06:00,
2013-06-15 03:11:00,64.2,60.3,29.88,SSE,158,0.0,0.0,87,0.00,,,0.13,WUHU216HW,2013-06-15 08:11:00,
2013-06-15 03:16:00,64.2,60.3,29.88,SE,135,0.0,0.0,87,0.00,,,0.13,WUHU216HW,2013-06-15 08:16:00,
2013-06-15 03:21:00,64.4,60.4,29.88,SE,135,0.0,0.0,87,0.00,,,0.13,WUHU216HW,2013-06-15 08:21:00,
2013-06-15 03:26:00,64.4,60.4,29.87,SSE,158,0.0,0.0,87,0.00,,,0.13,WUHU216HW,2013-06-15 08:26:00,
2013-06-15 03:31:00,64.4,60.4,29.87,SSE,158,0.0,0.0,87,0.00,,,0.13,WUHU216HW,2013-06-15 08:31:00,
2013-06-15 03:36:00,64.5,60.6,29.87,SSE,158,0.0,0.0,87,0.00,,,0.13,WUHU216HW,2013-06-15 08:36:00,
2013-06-15 03:41:00,64.5,60.6,29.87,SSE,158,0.0,0.0,87,0.00,,,0.13,WUHU216HW,2013-06-15 08:41:00,
2013-06-15 03:46:00,64.5,60.6,29.87,SE,135,0.0,0.0,87,0.00,,,0.13,WUHU216HW,2013-06-15 08:46:00,
2013-06-15 03:51:00,64.4,60.4,29.87,SE,135,0.0,0.0,87,0.00,,,0.13,WUHU216HW,2013-06-15 08:51:00,
2013-06-15 03:56:00,64.2,60.3,29.87,SSE,158,0.0,0.0,87,0.00,,,0.13,WUHU216HW,2013-06-15 08:56:00,
2013-06-15 04:01:00,64.2,60.3,29.86,SSE,158,0.0,0.0,87,0.00,,,0.13,WUHU216HW,2013-06-15 09:01:00,
2013-06-15 04:06:00,64.0,60.1,29.86,SSE,158,0.0,0.0,87,0.00,,,0.13,WUHU216HW,2013-06-15 09:06:00,
2013-06-15 04:11:00,64.0,60.1,29.86,SSE,158,0.0,0.0,87,0.00,,,0.13,WUHU216HW,2013-06-15 09:11:00,
2013-06-15 04:16:00,63.8,59.9,29.86,SE,135,0.0,0.0,87,0.00,,,0.13,WUHU216HW,2013-06-15 09:16:00,
2013-06-15 04:21:00,63.6,59.7,29.86,SSE,158,0.0,0.0,87,0.00,,,0.13,WUHU216HW,2013-06-15 09:21:00,
2013-06-15 04:26:00,63.6,59.7,29.85,SSW,203,0.0,0.0,87,0.00,,,0.13,WUHU216HW,2013-06-15 09:26:00,
2013-06-15 04:31:00,63.6,59.7,29.85,SSW,203,0.0,0.0,87,0.00,,,0.13,WUHU216HW,2013-06-15 09:31:00,
2013-06-15 04:36:00,63.5,59.5,29.85,South,180,0.0,0.0,87,0.00,,,0.13,WUHU216HW,2013-06-15 09:36:00,
2013-06-15 04:41:00,63.5,59.5,29.85,South,180,0.0,0.0,87,0.00,,,0.13,WUHU216HW,2013-06-15 09:41:00,
2013-06-15 04:46:00,63.5,59.5,29.85,South,180,0.0,0.0,87,0.00,,,0.13,WUHU216HW,2013-06-15 09:46:00,
2013-06-15 04:51:00,63.5,59.9,29.85,South,180,0.0,0.0,88,0.00,,,0.13,WUHU216HW,2013-06-15 09:51:00,
2013-06-15 04:56:00,63.5,59.9,29.86,South,180,0.0,0.0,88,0.00,,,0.13,WUHU216HW,2013-06-15 09:56:00,
2013-06-15 05:01:00,63.5,59.9,29.86,SSE,158,0.0,0.0,88,0.00,,,0.13,WUHU216HW,2013-06-15 10:01:00,
2013-06-15 05:06:00,63.5,59.9,29.86,SSE,158,0.0,0.0,88,0.00,,,0.13,WUHU216HW,2013-06-15 10:06:00,
2013-06-15 05:11:00,63.5,59.9,29.86,South,180,0.0,0.0,88,0.00,,,0.13,WUHU216HW,2013-06-15 10:11:00,
2013-06-15 05:16:00,63.5,59.9,29.86,SE,135,0.0,0.0,88,0.00,,,0.13,WUHU216HW,2013-06-15 10:16:00,
2013-06-15 05:21:00,63.3,59.7,29.86,SSE,158,0.0,0.0,88,0.00,,,0.13,WUHU216HW,2013-06-15 10:21:00,
2013-06-15 05:26:00,63.3,59.7,29.86,SSE,158,0.0,0.0,88,0.00,,,0.13,WUHU216HW,2013-06-15 10:26:00,
2013-06-15 05:31:00,63.3,59.7,29.86,SSE,158,0.0,0.0,88,0.00,,,0.13,WUHU216HW,2013-06-15 10:31:00,
2013-06-15 05:36:00,63.1,59.5,29.86,South,180,0.0,0.0,88,0.00,,,0.13,WUHU216HW,2013-06-15 10:36:00,
2013-06-15 05:41:00,63.3,59.7,29.86,SE,135,0.0,0.0,88,0.00,,,0.13,WUHU216HW,2013-06-15 10:41:00,
2013-06-15 05:46:00,63.1,59.5,29.86,SE,135,0.0,0.0,88,0.00,,,0.13,WUHU216HW,2013-06-15 10:46:00,
2013-06-15 05:51:00,63.1,59.5,29.86,SSE,158,0.0,0.0,88,0.00,,,0.13,WUHU216HW,2013-06-15 10:51:00,
2013-06-15 05:56:00,63.1,59.5,29.86,SSE,158,0.0,0.0,88,0.00,,,0.13,WUHU216HW,2013-06-15 10:56:00,
2013-06-15 06:01:00,63.1,59.5,29.86,SSE,158,0.0,0.0,88,0.00,,,0.13,WUHU216HW,2013-06-15 11:01:00,
2013-06-15 06:06:00,63.1,59.5,29.86,SSW,203,0.0,0.0,88,0.00,,,0.13,WUHU216HW,2013-06-15 11:06:00,
2013-06-15 06:11:00,63.1,59.5,29.87,South,180,0.0,0.0,88,0.00,,,0.13,WUHU216HW,2013-06-15 11:11:00,
2013-06-15 06:16:00,63.1,59.5,29.87,South,180,0.0,0.0,88,0.00,,,0.13,WUHU216HW,2013-06-15 11:16:00,
2013-06-15 06:21:00,63.3,59.7,29.87,South,180,0.0,0.0,88,0.00,,,0.13,WUHU216HW,2013-06-15 11:21:00,
2013-06-15 06:26:00,63.3,59.7,29.87,South,180,0.0,0.0,88,0.00,,,0.13,WUHU216HW,2013-06-15 11:26:00,
2013-06-15 06:31:00,63.5,60.2,29.87,SSW,203,0.0,0.0,89,0.00,,,0.13,WUHU216HW,2013-06-15 11:31:00,
2013-06-15 06:36:00,63.5,60.2,29.87,SSW,203,0.0,0.0,89,0.00,,,0.13,WUHU216HW,2013-06-15 11:36:00,
2013-06-15 06:41:00,63.6,60.4,29.87,SSW,203,0.0,0.0,89,0.00,,,0.13,WUHU216HW,2013-06-15 11:41:00,
2013-06-15 06:46:00,64.0,60.8,29.87,SSW,203,0.0,0.0,89,0.00,,,0.13,WUHU216HW,2013-06-15 11:46:00,
2013-06-15 06:51:00,64.4,61.1,29.86,SSW,203,0.0,0.0,89,0.00,,,0.13,WUHU216HW,2013-06-15 11:51:00,
2013-06-15 06:56:00,64.9,61.6,29.86,SSW,203,0.0,0.0,89,0.00,,,0.13,WUHU216HW,2013-06-15 11:56:00,
2013-06-15 07:01:00,66.0,62.9,29.87,SSW,203,0.0,0.0,90,0.00,,,0.13,WUHU216HW,2013-06-15 12:01:00,
2013-06-15 07:06:00,67.1,64.0,29.87,SSW,203,0.0,0.0,90,0.00,,,0.13,WUHU216HW,2013-06-15 12:06:00,
2013-06-15 07:11:00,68.1,65.4,29.87,South,180,0.0,0.0,91,0.00,,,0.13,WUHU216HW,2013-06-15 12:11:00,
2013-06-15 07:16:00,69.4,66.6,29.87,SSW,203,0.0,0.0,91,0.00,,,0.13,WUHU216HW,2013-06-15 12:16:00,
2013-06-15 07:21:00,71.2,68.4,29.87,South,180,0.0,0.0,91,0.00,,,0.13,WUHU216HW,2013-06-15 12:21:00,
2013-06-15 07:26:00,72.3,69.5,29.87,SSE,158,0.0,0.0,91,0.00,,,0.13,WUHU216HW,2013-06-15 12:26:00,
2013-06-15 07:31:00,73.0,69.6,29.87,SSE,158,0.0,0.0,89,0.00,,,0.13,WUHU216HW,2013-06-15 12:31:00,
2013-06-15 07:36:00,74.3,69.8,29.87,SSE,158,0.0,0.0,86,0.00,,,0.13,WUHU216HW,2013-06-15 12:36:00,
2013-06-15 07:41:00,75.7,70.5,29.87,ESE,113,0.0,0.0,84,0.00,,,0.13,WUHU216HW,2013-06-15 12:41:00,
2013-06-15 07:46:00,76.8,70.5,29.86,SSE,158,0.0,0.0,81,0.00,,,0.13,WUHU216HW,2013-06-15 12:46:00,
2013-06-15 07:51:00,78.9,71.5,29.86,SSE,158,0.0,0.0,78,0.00,,,0.13,WUHU216HW,2013-06-15 12:51:00,
2013-06-15 07:56:00,80.2,71.2,29.87,SSE,158,0.0,0.0,74,0.00,,,0.13,WUHU216HW,2013-06-15 12:56:00,
2013-06-15 08:01:00,81.5,71.2,29.87,South,180,0.0,0.0,72,0.00,,,0.13,WUHU216HW,2013-06-15 13:01:00,
2013-06-15 08:06:00,82.2,71.4,29.87,South,180,0.0,0.0,70,0.00,,,0.13,WUHU216HW,2013-06-15 13:06:00,
2013-06-15 08:11:00,82.9,71.6,29.87,South,180,0.0,0.0,69,0.00,,,0.13,WUHU216HW,2013-06-15 13:11:00,
2013-06-15 08:16:00,83.4,71.3,29.87,SSE,158,0.0,0.0,67,0.00,,,0.13,WUHU216HW,2013-06-15 13:16:00,
2013-06-15 08:21:00,83.8,70.7,29.87,SSE,158,0.0,0.0,65,0.00,,,0.13,WUHU216HW,2013-06-15 13:21:00,
2013-06-15 08:26:00,83.8,71.2,29.87,South,180,0.0,0.0,66,0.00,,,0.13,WUHU216HW,2013-06-15 13:26:00,
2013-06-15 08:31:00,84.0,70.9,29.88,SSE,158,0.0,0.0,65,0.00,,,0.13,WUHU216HW,2013-06-15 13:31:00,
2013-06-15 08:36:00,83.4,69.9,29.88,SE,135,0.0,0.0,64,0.00,,,0.13,WUHU216HW,2013-06-15 13:36:00,
2013-06-15 08:41:00,83.1,69.6,29.88,SSE,158,0.0,0.0,64,0.00,,,0.13,WUHU216HW,2013-06-15 13:41:00,
2013-06-15 08:46:00,82.9,69.0,29.88,SSE,158,0.0,0.0,64,0.00,,,0.13,WUHU216HW,2013-06-15 13:46:00,
2013-06-15 08:51:00,81.5,68.0,29.89,SE,135,0.0,0.0,64,0.00,,,0.13,WUHU216HW,2013-06-15 13:51:00,
2013-06-15 08:56:00,80.4,68.0,29.88,SSE,158,0.0,0.0,66,0.00,,,0.13,WUHU216HW,2013-06-15 13:56:00,
2013-06-15 09:01:00,80.2,68.7,29.88,SSE,158,0.0,0.0,68,0.00,,,0.13,WUHU216HW,2013-06-15 14:01:00,
2013-06-15 09:06:00,79.7,68.1,29.89,SSE,158,0.0,0.0,68,0.00,,,0.13,WUHU216HW,2013-06-15 14:06:00,
2013-06-15 09:11:00,79.7,68.6,29.88,SSW,203,0.0,0.0,69,0.00,,,0.13,WUHU216HW,2013-06-15 14:11:00,
2013-06-15 09:16:00,79.8,68.8,29.89,SSE,158,0.0,0.0,69,0.00,,,0.13,WUHU216HW,2013-06-15 14:16:00,
2013-06-15 09:21:00,80.4,69.3,29.89,South,180,0.0,0.0,69,0.00,,,0.13,WUHU216HW,2013-06-15 14:21:00,
2013-06-15 09:26:00,79.8,68.3,29.89,South,180,0.0,0.0,68,0.00,,,0.13,WUHU216HW,2013-06-15 14:26:00,
2013-06-15 09:31:00,78.9,67.4,29.89,SSE,158,0.0,0.0,68,0.00,,,0.13,WUHU216HW,2013-06-15 14:31:00,
2013-06-15 09:36:00,78.0,67.0,29.89,South,180,0.0,0.0,69,0.00,,,0.13,WUHU216HW,2013-06-15 14:36:00,
2013-06-15 09:41:00,78.0,67.5,29.89,SSE,158,0.0,0.0,70,0.00,,,0.13,WUHU216HW,2013-06-15 14:41:00,
2013-06-15 09:46:00,78.4,67.8,29.88,SE,135,0.0,0.0,70,0.00,,,0.13,WUHU216HW,2013-06-15 14:46:00,
2013-06-15 09:51:00,78.8,68.5,29.89,SSE,158,0.0,0.0,71,0.00,,,0.13,WUHU216HW,2013-06-15 14:51:00,
2013-06-15 09:56:00,80.2,69.6,29.88,SSW,203,0.0,0.0,71,0.00,,,0.13,WUHU216HW,2013-06-15 14:56:00,
2013-06-15 10:01:00,80.7,69.2,29.88,SSE,158,0.0,0.0,68,0.00,,,0.13,WUHU216HW,2013-06-15 15:01:00,
2013-06-15 10:06:00,81.1,69.5,29.88,SSW,203,0.0,0.0,68,0.00,,,0.13,WUHU216HW,2013-06-15 15:06:00,
2013-06-15 10:11:00,81.3,69.7,29.88,South,180,0.0,0.0,68,0.00,,,0.13,WUHU216HW,2013-06-15 15:11:00,
2013-06-15 10:16:00,81.3,69.2,29.89,South,180,0.0,0.0,67,0.00,,,0.13,WUHU216HW,2013-06-15 15:16:00,
2013-06-15 10:21:00,81.3,69.7,29.89,SSW,203,0.0,0.0,68,0.00,,,0.13,WUHU216HW,2013-06-15 15:21:00,
2013-06-15 10:26:00,80.7,68.7,29.88,South,180,0.0,0.0,67,0.00,,,0.13,WUHU216HW,2013-06-15 15:26:00,
2013-06-15 10:31:00,81.1,69.5,29.88,SSW,203,0.0,0.0,68,0.00,,,0.13,WUHU216HW,2013-06-15 15:31:00,
2013-06-15 10:36:00,81.3,69.7,29.88,SSW,203,0.0,0.0,68,0.00,,,0.13,WUHU216HW,2013-06-15 15:36:00,
2013-06-15 10:41:00,81.6,69.6,29.88,SSE,158,0.0,0.0,67,0.00,,,0.13,WUHU216HW,2013-06-15 15:41:00,
2013-06-15 10:46:00,82.0,69.9,29.88,SSW,203,0.0,0.0,67,0.00,,,0.13,WUHU216HW,2013-06-15 15:46:00,
2013-06-15 10:51:00,82.2,70.0,29.88,SSW,203,0.0,0.0,67,0.00,,,0.13,WUHU216HW,2013-06-15 15:51:00,
2013-06-15 10:56:00,82.2,69.1,29.88,SSE,158,0.0,0.0,65,0.00,,,0.13,WUHU216HW,2013-06-15 15:56:00,
2013-06-15 11:01:00,82.0,69.4,29.88,SSW,203,0.0,0.0,66,0.00,,,0.13,WUHU216HW,2013-06-15 16:01:00,
2013-06-15 11:06:00,82.2,69.6,29.87,SSW,203,0.0,0.0,66,0.00,,,0.13,WUHU216HW,2013-06-15 16:06:00,
2013-06-15 11:11:00,82.9,70.3,29.87,South,180,0.0,0.0,66,0.00,,,0.13,WUHU216HW,2013-06-15 16:11:00,
2013-06-15 11:16:00,83.1,70.0,29.86,South,180,0.0,0.0,65,0.00,,,0.13,WUHU216HW,2013-06-15 16:16:00,
2013-06-15 11:21:00,83.6,70.1,29.86,SSE,158,0.0,0.0,64,0.00,,,0.13,WUHU216HW,2013-06-15 16:21:00,
2013-06-15 11:26:00,83.6,70.1,29.86,SSW,203,0.0,0.0,64,0.00,,,0.13,WUHU216HW,2013-06-15 16:26:00,
2013-06-15 11:31:00,83.8,70.3,29.87,SSW,203,0.0,0.0,64,0.00,,,0.13,WUHU216HW,2013-06-15 16:31:00,
2013-06-15 11:36:00,84.0,70.5,29.87,South,180,0.0,0.0,64,0.00,,,0.13,WUHU216HW,2013-06-15 16:36:00,
2013-06-15 11:41:00,84.7,71.2,29.88,SSW,203,0.0,0.0,64,0.00,,,0.13,WUHU216HW,2013-06-15 16:41:00,
2013-06-15 11:46:00,84.9,70.9,29.88,SSW,203,0.0,0.0,63,0.00,,,0.13,WUHU216HW,2013-06-15 16:46:00,
2013-06-15 11:51:00,84.5,70.1,29.90,South,180,0.0,0.0,62,0.00,,,0.13,WUHU216HW,2013-06-15 16:51:00,
2013-06-15 11:56:00,83.3,69.3,29.89,SSW,203,0.0,0.0,63,0.00,,,0.13,WUHU216HW,2013-06-15 16:56:00,
2013-06-15 12:01:00,82.0,68.5,29.90,SW,225,0.0,0.0,64,0.00,,,0.13,WUHU216HW,2013-06-15 17:01:00,
2013-06-15 12:06:00,81.6,68.7,29.90,SSW,203,0.0,0.0,65,0.00,,,0.13,WUHU216HW,2013-06-15 17:06:00,
2013-06-15 12:11:00,82.0,69.4,29.89,South,180,0.0,0.0,66,0.00,,,0.13,WUHU216HW,2013-06-15 17:11:00,
2013-06-15 12:16:00,82.2,69.1,29.89,SSW,203,0.0,0.0,65,0.00,,,0.13,WUHU216HW,2013-06-15 17:16:00,
2013-06-15 12:21:00,82.5,69.9,29.90,SE,135,0.0,0.0,66,0.00,,,0.13,WUHU216HW,2013-06-15 17:21:00,
2013-06-15 12:26:00,82.2,69.1,29.90,SSW,203,0.0,0.0,65,0.00,,,0.13,WUHU216HW,2013-06-15 17:26:00,
2013-06-15 12:31:00,81.6,69.1,29.90,SSW,203,0.0,0.0,66,0.00,,,0.13,WUHU216HW,2013-06-15 17:31:00,
2013-06-15 12:36:00,81.3,68.8,29.90,South,180,0.0,0.0,66,0.00,,,0.13,WUHU216HW,2013-06-15 17:36:00,
2013-06-15 12:41:00,80.9,68.9,29.89,South,180,0.0,0.0,67,0.00,,,0.13,WUHU216HW,2013-06-15 17:41:00,
2013-06-15 12:46:00,80.2,68.2,29.89,South,180,0.0,0.0,67,0.00,,,0.13,WUHU216HW,2013-06-15 17:46:00,
2013-06-15 12:51:00,79.5,68.0,29.89,SSW,203,0.0,0.0,68,0.00,,,0.13,WUHU216HW,2013-06-15 17:51:00,
2013-06-15 12:56:00,78.8,67.3,29.89,SSW,203,0.0,0.0,68,0.00,,,0.13,WUHU216HW,2013-06-15 17:56:00,
2013-06-15 13:01:00,78.0,67.0,29.89,SSW,203,0.0,0.0,69,0.00,,,0.13,WUHU216HW,2013-06-15 18:01:00,
2013-06-15 13:06:00,77.7,67.2,29.89,SSW,203,0.0,0.0,70,0.00,,,0.13,WUHU216HW,2013-06-15 18:06:00,
2013-06-15 13:11:00,77.5,67.0,29.88,SSW,203,0.0,0.0,70,0.00,,,0.13,WUHU216HW,2013-06-15 18:11:00,
2013-06-15 13:16:00,77.5,67.4,29.88,South,180,0.0,0.0,71,0.00,,,0.13,WUHU216HW,2013-06-15 18:16:00,
2013-06-15 13:21:00,77.3,67.2,29.88,SSW,203,0.0,0.0,71,0.00,,,0.13,WUHU216HW,2013-06-15 18:21:00,
2013-06-15 13:26:00,77.3,67.2,29.88,SSE,158,0.0,0.0,71,0.00,,,0.13,WUHU216HW,2013-06-15 18:26:00,
2013-06-15 13:31:00,77.1,67.4,29.87,SSW,203,0.0,0.0,72,0.00,,,0.13,WUHU216HW,2013-06-15 18:31:00,
2013-06-15 13:36:00,76.8,67.1,29.87,SSE,158,0.0,0.0,72,0.00,,,0.13,WUHU216HW,2013-06-15 18:36:00,
2013-06-15 13:41:00,76.8,67.1,29.87,SSE,158,0.0,0.0,72,0.00,,,0.13,WUHU216HW,2013-06-15 18:41:00,
2013-06-15 13:46:00,76.6,66.9,29.87,SSW,203,0.0,0.0,72,0.00,,,0.13,WUHU216HW,2013-06-15 18:46:00,
2013-06-15 13:51:00,76.1,66.4,29.87,SSW,203,0.0,0.0,72,0.00,,,0.13,WUHU216HW,2013-06-15 18:51:00,
2013-06-15 13:56:00,75.7,66.4,29.87,South,180,0.0,0.0,73,0.00,,,0.13,WUHU216HW,2013-06-15 18:56:00,
2013-06-15 14:01:00,75.3,66.5,29.87,South,180,0.0,0.0,74,0.00,,,0.13,WUHU216HW,2013-06-15 19:01:00,
2013-06-15 14:06:00,75.0,66.1,29.87,South,180,0.0,0.0,74,0.00,,,0.13,WUHU216HW,2013-06-15 19:06:00,
2013-06-15 14:11:00,74.8,66.3,29.86,SSW,203,0.0,0.0,75,0.00,,,0.13,WUHU216HW,2013-06-15 19:11:00,
2013-06-15 14:16:00,74.4,66.0,29.87,SW,225,0.0,0.0,75,0.00,,,0.13,WUHU216HW,2013-06-15 19:16:00,
2013-06-15 14:21:00,74.3,66.2,29.87,WSW,248,0.0,0.0,76,0.00,,,0.13,WUHU216HW,2013-06-15 19:21:00,
2013-06-15 14:26:00,73.9,65.9,29.88,WNW,293,0.0,0.0,76,0.00,,,0.13,WUHU216HW,2013-06-15 19:26:00,
2013-06-15 14:31:00,73.2,65.6,29.89,SSW,203,0.0,0.0,77,0.00,,,0.13,WUHU216HW,2013-06-15 19:31:00,
2013-06-15 14:36:00,73.2,65.9,29.88,SSW,203,0.0,0.0,78,0.00,,,0.13,WUHU216HW,2013-06-15 19:36:00,
2013-06-15 14:41:00,72.8,65.6,29.89,SSE,158,0.0,0.0,78,0.00,,,0.13,WUHU216HW,2013-06-15 19:41:00,
2013-06-15 14:46:00,72.3,65.4,29.89,WNW,293,0.0,0.0,79,0.00,,,0.13,WUHU216HW,2013-06-15 19:46:00,
2013-06-15 14:51:00,71.4,64.9,29.89,SSW,203,0.0,0.0,80,0.00,,,0.13,WUHU216HW,2013-06-15 19:51:00,
2013-06-15 14:56:00,71.2,65.1,29.89,SW,225,0.0,0.0,81,0.00,,,0.13,WUHU216HW,2013-06-15 19:56:00,
2013-06-15 15:01:00,69.9,63.8,29.89,WNW,293,0.0,0.0,81,0.00,,,0.13,WUHU216HW,2013-06-15 20:01:00,
2013-06-15 15:06:00,68.9,62.5,29.89,West,270,0.0,0.0,80,0.00,,,0.13,WUHU216HW,2013-06-15 20:06:00,
2013-06-15 15:11:00,67.8,61.8,29.88,West,270,0.0,0.0,81,0.00,,,0.13,WUHU216HW,2013-06-15 20:11:00,
2013-06-15 15:16:00,66.9,60.9,29.87,West,270,0.0,0.0,81,0.00,,,0.13,WUHU216HW,2013-06-15 20:16:00,
2013-06-15 15:21:00,66.5,60.9,29.87,SSW,203,0.0,0.0,82,0.02,,,0.15,WUHU216HW,2013-06-15 20:21:00,
2013-06-15 15:26:00,66.3,60.7,29.86,South,180,0.0,0.0,82,0.02,,,0.15,WUHU216HW,2013-06-15 20:26:00,
2013-06-15 15:31:00,66.0,60.6,29.85,SSW,203,0.0,0.0,83,0.04,,,0.16,WUHU216HW,2013-06-15 20:31:00,
2013-06-15 15:36:00,66.0,60.6,29.86,WNW,293,0.0,0.0,83,0.04,,,0.16,WUHU216HW,2013-06-15 20:36:00,
2013-06-15 15:41:00,66.0,60.6,29.87,WNW,293,0.0,0.0,83,0.04,,,0.16,WUHU216HW,2013-06-15 20:41:00,
2013-06-15 15:46:00,66.5,61.3,29.88,NW,315,0.0,0.0,84,0.04,,,0.16,WUHU216HW,2013-06-15 20:46:00,
2013-06-15 15:51:00,66.9,61.9,29.88,West,270,0.0,0.0,84,0.04,,,0.16,WUHU216HW,2013-06-15 20:51:00,
2013-06-15 15:56:00,67.1,62.0,29.87,NW,315,0.0,0.0,84,0.04,,,0.16,WUHU216HW,2013-06-15 20:56:00,
2013-06-15 16:01:00,67.2,62.2,29.87,NNW,338,0.0,0.0,84,0.04,,,0.16,WUHU216HW,2013-06-15 21:01:00,
2013-06-15 16:06:00,67.8,62.4,29.86,NW,315,0.0,0.0,83,0.04,,,0.16,WUHU216HW,2013-06-15 21:06:00,
2013-06-15 16:11:00,68.9,63.5,29.86,WNW,293,0.0,0.0,83,0.04,,,0.16,WUHU216HW,2013-06-15 21:11:00,
2013-06-15 16:16:00,69.8,63.6,29.86,WNW,293,0.0,0.0,81,0.04,,,0.16,WUHU216HW,2013-06-15 21:16:00,
2013-06-15 16:21:00,69.6,63.4,29.85,WSW,248,0.0,0.0,81,0.02,,,0.16,WUHU216HW,2013-06-15 21:21:00,
2013-06-15 16:26:00,69.9,63.5,29.84,WNW,293,0.0,0.0,80,0.00,,,0.16,WUHU216HW,2013-06-15 21:26:00,
2013-06-15 16:31:00,71.4,64.5,29.84,WNW,293,0.0,0.0,79,0.00,,,0.16,WUHU216HW,2013-06-15 21:31:00,
2013-06-15 16:36:00,72.5,65.2,29.84,NW,315,0.0,0.0,78,0.00,,,0.16,WUHU216HW,2013-06-15 21:36:00,
2013-06-15 16:41:00,73.4,65.7,29.84,NNW,338,0.0,0.0,77,0.00,,,0.16,WUHU216HW,2013-06-15 21:41:00,
2013-06-15 20:33:00,80.4,64.2,29.86,WNW,293,0.0,0.0,58,0.00,,,0.16,WUHU216HW,2013-06-16 01:33:00,
2013-06-15 20:38:00,78.2,63.3,29.85,WNW,293,0.0,0.0,60,0.00,,,0.18,WUHU216HW,2013-06-16 01:38:00,
2013-06-15 20:43:00,75.0,61.1,29.86,WNW,293,0.0,0.0,62,0.00,,,0.18,WUHU216HW,2013-06-16 01:43:00,
2013-06-15 20:48:00,73.5,60.1,29.85,WNW,293,0.0,0.0,63,0.00,,,0.18,WUHU216HW,2013-06-16 01:48:00,
2013-06-15 20:53:00,72.3,59.4,29.86,WNW,293,0.0,0.0,64,0.00,,,0.18,WUHU216HW,2013-06-16 01:53:00,
2013-06-15 20:58:00,70.5,58.9,29.85,WNW,293,0.0,0.0,67,0.00,,,0.18,WUHU216HW,2013-06-16 01:58:00,
2013-06-15 21:03:00,69.6,58.5,29.86,WNW,293,0.0,0.0,68,0.00,,,0.18,WUHU216HW,2013-06-16 02:03:00,
2013-06-15 21:08:00,68.7,58.5,29.86,WNW,293,0.0,0.0,70,0.00,,,0.18,WUHU216HW,2013-06-16 02:08:00,
2013-06-15 21:13:00,67.4,57.7,29.86,WNW,293,0.0,0.0,71,0.00,,,0.18,WUHU216HW,2013-06-16 02:13:00,
2013-06-15 21:18:00,66.7,57.4,29.86,WNW,293,0.0,0.0,72,0.00,,,0.18,WUHU216HW,2013-06-16 02:18:00,
2013-06-15 21:23:00,66.0,57.4,29.86,WNW,293,0.0,0.0,74,0.00,,,0.18,WUHU216HW,2013-06-16 02:23:00,
2013-06-15 21:28:00,65.1,56.9,29.87,WNW,293,0.0,0.0,75,0.00,,,0.18,WUHU216HW,2013-06-16 02:28:00,
2013-06-15 21:33:00,64.7,57.0,29.87,WNW,293,0.0,0.0,76,0.00,,,0.18,WUHU216HW,2013-06-16 02:33:00,
2013-06-15 21:38:00,64.2,56.8,29.87,WNW,293,0.0,0.0,77,0.00,,,0.18,WUHU216HW,2013-06-16 02:38:00,
2013-06-15 21:43:00,64.0,57.0,29.87,WNW,293,0.0,0.0,78,0.00,,,0.18,WUHU216HW,2013-06-16 02:43:00,
2013-06-15 21:48:00,63.8,57.2,29.87,WNW,293,0.0,0.0,79,0.00,,,0.18,WUHU216HW,2013-06-16 02:48:00,
2013-06-15 21:53:00,63.6,57.3,29.87,WNW,293,0.0,0.0,80,0.00,,,0.18,WUHU216HW,2013-06-16 02:53:00,
2013-06-15 21:58:00,63.5,57.2,29.87,WNW,293,0.0,0.0,80,0.00,,,0.18,WUHU216HW,2013-06-16 02:58:00,
2013-06-15 22:03:00,63.5,57.5,29.88,WNW,293,0.0,0.0,81,0.00,,,0.18,WUHU216HW,2013-06-16 03:03:00,
2013-06-15 22:08:00,63.3,57.3,29.87,WNW,293,0.0,0.0,81,0.00,,,0.18,WUHU216HW,2013-06-16 03:08:00,
2013-06-15 22:13:00,62.6,56.6,29.87,WNW,293,0.0,0.0,81,0.00,,,0.18,WUHU216HW,2013-06-16 03:13:00,
2013-06-15 22:18:00,62.2,56.6,29.88,WNW,293,0.0,0.0,82,0.00,,,0.18,WUHU216HW,2013-06-16 03:18:00,
2013-06-15 22:23:00,62.2,56.6,29.88,WNW,293,0.0,0.0,82,0.00,,,0.18,WUHU216HW,2013-06-16 03:23:00,
2013-06-15 22:28:00,62.4,57.1,29.88,WNW,293,0.0,0.0,83,0.00,,,0.18,WUHU216HW,2013-06-16 03:28:00,
2013-06-15 22:33:00,62.2,56.9,29.88,WNW,293,0.0,0.0,83,0.00,,,0.18,WUHU216HW,2013-06-16 03:33:00,
2013-06-15 22:38:00,61.7,56.4,29.88,WNW,293,0.0,0.0,83,0.00,,,0.18,WUHU216HW,2013-06-16 03:38:00,
2013-06-15 22:43:00,61.5,56.3,29.88,WNW,293,0.0,0.0,83,0.00,,,0.18,WUHU216HW,2013-06-16 03:43:00,
2013-06-15 22:48:00,61.5,56.6,29.88,WNW,293,0.0,0.0,84,0.00,,,0.18,WUHU216HW,2013-06-16 03:48:00,
2013-06-15 22:53:00,61.1,56.3,29.88,WNW,293,0.0,0.0,84,0.00,,,0.18,WUHU216HW,2013-06-16 03:53:00,
2013-06-15 22:58:00,60.9,56.1,29.88,WNW,293,0.0,0.0,84,0.00,,,0.18,WUHU216HW,2013-06-16 03:58:00,
2013-06-15 23:01:00,60.6,55.7,29.88,WNW,293,0.0,0.0,84,0.00,,,0.18,WUHU216HW,2013-06-16 04:01:00,
2013-06-15 23:06:00,60.4,55.6,29.88,WNW,293,0.0,0.0,84,0.00,,,0.18,WUHU216HW,2013-06-16 04:06:00,
2013-06-15 23:11:00,59.9,55.0,29.89,WNW,293,0.0,0.0,84,0.00,,,0.18,WUHU216HW,2013-06-16 04:11:00,
2013-06-15 23:16:00,59.7,54.8,29.89,WNW,293,0.0,0.0,84,0.00,,,0.18,WUHU216HW,2013-06-16 04:16:00,
2013-06-15 23:21:00,59.5,54.7,29.89,WNW,293,0.0,0.0,84,0.00,,,0.18,WUHU216HW,2013-06-16 04:21:00,
2013-06-15 23:26:00,59.7,55.2,29.89,WNW,293,0.0,0.0,85,0.00,,,0.18,WUHU216HW,2013-06-16 04:26:00,
2013-06-15 23:31:00,60.0,55.5,29.89,WNW,293,0.0,0.0,85,0.00,,,0.18,WUHU216HW,2013-06-16 04:31:00,
2013-06-15 23:36:00,60.2,55.7,29.89,WNW,293,0.0,0.0,85,0.00,,,0.18,WUHU216HW,2013-06-16 04:36:00,
2013-06-15 23:41:00,60.0,55.5,29.89,WNW,293,0.0,0.0,85,0.00,,,0.18,WUHU216HW,2013-06-16 04:41:00,
2013-06-15 23:46:00,59.7,55.2,29.89,WNW,293,0.0,0.0,85,0.00,,,0.18,WUHU216HW,2013-06-16 04:46:00,
2013-06-15 23:51:00,59.1,54.6,29.89,WNW,293,0.0,0.0,85,0.00,,,0.18,WUHU216HW,2013-06-16 04:51:00,
2013-06-15 23:56:00,59.3,55.1,29.89,WNW,293,0.0,0.0,86,0.00,,,0.18,WUHU216HW,2013-06-16 04:56:00,